Location: Spring Creek
(38.2870°N, 100.2160°W)
Time: 00:53:49
(UTC+00:00)

Cosmos 1455 Rocket - Pass Details

Date: 08 May 2021
Orbit: 605 x 629 km, 82.5° (Epoch: 24 June)

Event Time Altitude Azimuth Distance (km) Brightness Sun altitude
Rises 09:43:05 0° 345° (NNW) 2,869 6.9 -19.5°
Reaches altitude 10° 09:45:23 10° 338° (NNW) 1,961 5.9 -19.2°
Maximum altitude 09:49:28 42° 268° (W) 874 3.4 -18.6°
Enters shadow 09:50:01 40° 247° (WSW) 906 3.4 -18.5°
